Theta_e
315 308 307 306 299 295 293 292 292 291 290 289 290 289 289 289 289 290 289 289 288 287
314 307 305 301 298 295 293 291 291 290 288 288 288 288 288 287 287 288 288 287 287 286
308 306 302 299 294 292 290 290 289 289 287 287 287 287 287 286 287 286 287 287 287 286
304 300 297 294 292 291 289 289 288 288 287 286 286 286 285 286 286 286 285 286 286 285
296 295 293 292 291 290 289 289 288 287 286 285 286 286 286 286 286 285 284 285 285 284
293 293 292 290 290 289 288 287 286 286 285 286 286 286 286 286 285 285 285 285 284 284
292 291 290 289 289 288 287 286 286 287 287 286 286 286 286 285 285 285 285 285 284 284
290 289 288 287 287 287 287 287 287 287 286 286 286 286 285 285 284 284 283 283 283 283
288 287 287 286 285 285 286 286 287 286 286 285 286 287 287 285 283 283 282 281 282 282
287 286 286 285 285 285 285 286 285 285 285 285 284 287 287 286 282 282 281 281 281 281
286 286 286 286 286 285 285 285 285 285 284 283 282 287 287 286 282 282 282 282 281 281
286 286 286 285 285 286 285 285 284 283 283 282 281 287 287 286 283 282 282 282 282 282
287 286 285 285 285 285 285 284 283 282 283 283 282 286 287 286 283 282 282 282 282 283
287 285 285 284 284 284 283 281 281 281 281 281 282 283 286 287 283 283 282 282 282 282
Wind_Speed
25 16 16 19 14 12 11 10 15 12 13 12 13 10 10 7 6 7 7 8 7 4
21 20 17 18 16 12 15 14 14 14 15 12 13 12 11 7 8 9 7 8 7 5
17 19 18 18 19 18 17 17 18 16 16 13 12 14 12 8 7 10 6 6 7 4
13 17 18 16 18 19 20 19 18 18 16 16 12 11 12 10 8 10 7 6 6 5
16 17 17 19 19 20 20 19 19 18 17 16 12 11 12 12 8 9 9 7 6 6
18 15 17 20 21 22 20 18 17 17 18 15 13 10 10 10 9 9 8 8 7 7
19 18 17 18 21 22 20 20 18 15 16 14 13 10 10 11 10 8 7 8 7 6
18 18 19 18 18 20 19 18 17 14 13 12 11 9 11 9 9 9 7 6 5 4
19 19 19 19 18 16 19 17 15 13 13 12 8 17 16 11 8 8 6 6 5 6
20 19 18 19 18 18 18 15 14 12 11 10 8 17 16 13 6 7 6 6 7 5
19 19 18 18 17 15 14 14 13 11 9 9 7 17 16 14 6 5 6 5 6 6
19 19 18 16 15 13 14 11 9 8 9 8 6 16 16 13 7 5 5 5 7 8
16 16 15 14 14 10 11 10 7 7 6 7 7 14 15 12 3 4 3 4 7 11
15 14 12 12 10 10 9 9 7 7 5 5 5 8 14 14 5 5 4 5 4 4
Wind_Direction
180 171 171 168 158 148 145 141 132 130 123 121 120 125 111 98 95 101 99 101 85 93
171 170 164 155 149 144 135 134 129 130 125 128 118 114 103 104 114 96 92 90 90 76
164 160 153 151 142 141 138 132 133 131 122 122 121 116 118 120 106 105 95 89 102 139
156 142 142 141 137 136 134 139 133 133 126 118 120 118 120 112 106 103 119 149 145 151
135 139 140 138 137 137 140 133 134 132 125 123 131 127 125 131 145 141 166 148 157 165
134 141 140 137 137 140 132 130 132 133 129 133 138 137 142 133 153 167 155 162 177 174
138 140 138 137 136 131 138 135 131 138 135 143 142 142 144 160 163 153 167 171 179 176
128 130 128 129 131 131 128 131 124 134 141 140 141 157 162 162 156 165 167 168 176 183
125 130 129 127 126 128 128 129 138 141 143 147 157 166 165 156 159 166 165 168 169 195
129 130 129 127 128 129 132 139 137 140 148 150 153 168 171 167 155 164 166 182 189 191
126 125 124 126 127 135 135 138 137 147 154 146 159 171 177 173 159 175 182 184 185 200
126 124 127 126 130 135 127 132 141 148 144 145 144 178 179 175 186 185 193 196 206 216
117 116 121 125 126 124 128 134 134 126 137 150 153 181 186 185 154 199 210 209 221 221
103 102 106 113 120 124 120 113 117 136 140 147 156 178 191 193 183 205 218 223 224 215